Probability
0 0 0 0 0 0 0 0 0 0 0 0 0 0 0 0 0 0 0 3 0 0 3 6 6 6 6 6 3 0 0 0 0 0 0 0 0 0
0 0 0 0 0 0 0 0 0 0 0 0 0 0 0 0 0 0 0 0 0 0 3 3 6 6 6 6 3 3 3 3 0 0 0 0 0 0
0 0 0 0 0 0 0 0 0 0 0 0 0 0 0 0 0 0 0 0 0 0 0 3 0 0 3 3 0 0 3 0 0 0 0 0 0 0
0 0 0 0 0 0 0 0 0 0 0 0 0 0 0 0 0 0 0 0 0 0 0 0 0 0 0 0 0 0 0 0 0 0 0 0 0 0
0 0 0 0 0 0 0 0 0 0 0 0 0 0 0 0 0 0 0 0 0 0 0 0 0 0 0 0 0 0 0 0 0 0 0 0 0 0
0 0 0 0 0 0 0 0 0 0 0 0 0 0 0 0 0 0 0 0 0 0 0 0 0 0 0 0 0 0 0 0 0 0 0 0 0 0
0 0 0 0 0 0 0 0 0 0 0 0 0 0 0 0 0 0 0 0 0 0 0 0 0 0 0 0 0 0 0 0 0 0 0 0 0 0
0 0 0 0 0 0 0 0 0 0 0 0 0 0 0 0 0 0 0 0 0 0 0 0 0 0 0 0 0 0 0 0 0 0 0 0 0 0
0 0 0 0 0 0 0 0 0 0 0 0 0 0 0 0 0 0 0 0 0 0 0 0 0 0 0 0 0 0 0 0 0 0 0 0 0 0
0 0 0 0 0 0 0 0 0 0 0 0 0 0 0 0 0 0 0 0 0 0 0 0 0 0 0 0 0 0 0 0 0 0 0 0 0 0
0 0 0 0 0 0 0 0 0 0 0 0 0 0 0 0 0 0 0 0 0 0 0 0 0 0 0 0 0 0 0 0 0 0 0 0 0 0
0 0 0 0 0 0 0 0 0 0 0 0 0 0 0 0 0 0 0 0 0 0 0 0 0 0 0 0 0 0 0 0 0 0 0 0 0 0
0 0 0 0 0 0 0 0 0 0 0 0 0 0 0 0 0 0 0 0 0 0 0 0 0 0 0 0 0 0 0 0 0 0 0 0 0 0
0 0 0 0 0 0 0 0 0 0 0 0 0 0 0 0 0 0 0 0 0 0 0 0 0 0 0 0 0 0 0 0 0 0 0 0 0 0
0 0 0 0 0 0 0 0 0 0 0 0 0 0 0 0 0 0 0 0 0 0 0 0 0 0 0 0 0 0 0 0 0 0 0 0 0 0
0 0 0 0 0 0 0 0 0 0 0 0 0 0 0 0 0 0 0 0 0 0 0 0 0 0 0 0 0 0 0 0 0 0 0 0 0 0
0 0 0 0 0 0 0 0 0 0 0 0 0 0 0 0 0 0 0 0 0 0 0 0 0 0 0 0 0 0 0 0 0 0 0 0 0 0
0 0 0 0 0 0 0 0 0 0 0 0 0 0 0 0 0 0 0 0 0 0 0 0 0 0 0 0 0 0 0 0 0 0 0 0 0 0
0 0 0 0 0 0 0 0 0 0 0 0 0 0 0 0 0 0 0 0 0 0 0 0 0 0 0 0 0 0 0 0 0 0 0 0 0 0
0 0 0 0 0 0 0 0 0 0 0 0 0 0 0 0 0 0 0 0 0 0 0 0 0 0 0 0 0 0 0 0 0 0 0 0 0 0
0 0 0 0 0 0 0 0 0 0 0 0 0 0 0 0 0 0 0 0 0 0 0 0 0 0 0 0 0 0 0 0 0 0 0 0 0 0
0 0 0 0 0 0 0 0 0 0 0 0 0 0 0 0 0 0 0 0 0 0 0 0 0 0 0 0 0 0 0 0 0 0 0 0 0 0
0 0 0 0 0 0 0 0 0 0 0 0 0 0 0 0 0 0 0 0 0 0 0 0 0 0 0 0 0 0 0 0 0 0 0 0 0 0
Height
5864 5864 5864 5864 5864 5863 5863 5863 5864 5863 5863 5862 5862 5861 5860 5859 5859 5858 5857 5857 5856 5856 5855 5854 5853 5853 5852 5851 5850 5850 5849 5848 5848 5847 5846 5845 5845 5844
5864 5864 5864 5864 5863 5863 5863 5863 5863 5863 5862 5862 5862 5861 5860 5859 5859 5858 5857 5856 5856 5855 5854 5853 5852 5851 5850 5850 5848 5847 5847 5845 5845 5844 5843 5842 5841 5841
5864 5864 5863 5863 5863 5863 5863 5863 5862 5862 5862 5862 5861 5860 5859 5859 5858 5858 5857 5856 5855 5854 5853 5852 5851 5850 5849 5847 5846 5844 5843 5842 5841 5840 5839 5838 5837 5836
5863 5863 5862 5862 5862 5862 5862 5862 5861 5861 5861 5861 5860 5860 5859 5858 5857 5857 5856 5855 5854 5853 5851 5850 5849 5848 5846 5845 5843 5842 5840 5839 5838 5837 5835 5834 5833 5832
5863 5862 5861 5861 5861 5860 5860 5860 5860 5860 5860 5860 5860 5859 5858 5857 5856 5855 5854 5853 5852 5851 5849 5848 5846 5845 5843 5842 5840 5838 5837 5835 5834 5833 5831 5830 5828 5827
5862 5861 5860 5860 5859 5859 5859 5859 5859 5859 5859 5858 5858 5857 5857 5856 5855 5853 5852 5851 5849 5848 5846 5845 5843 5842 5840 5838 5836 5835 5833 5831 5830 5828 5827 5825 5823 5821
5860 5859 5859 5858 5858 5858 5858 5858 5857 5857 5857 5856 5856 5855 5854 5853 5852 5851 5849 5848 5846 5845 5843 5841 5840 5838 5836 5834 5832 5830 5828 5827 5825 5823 5821 5819 5818 5816
5859 5858 5857 5857 5856 5856 5856 5856 5855 5855 5854 5854 5853 5852 5851 5850 5849 5847 5846 5844 5842 5841 5839 5837 5835 5833 5831 5829 5827 5825 5823 5821 5819 5817 5815 5813 5811 5809
5857 5856 5855 5855 5855 5854 5854 5853 5853 5852 5852 5851 5850 5849 5848 5846 5845 5843 5841 5840 5838 5836 5834 5832 5830 5828 5826 5823 5821 5819 5817 5815 5812 5810 5808 5805 5803 5801
5854 5854 5853 5852 5852 5851 5851 5850 5849 5849 5848 5847 5846 5845 5843 5842 5840 5838 5836 5835 5833 5830 5828 5827 5824 5822 5819 5817 5814 5812 5809 5807 5805 5802 5800 5797 5794 5792
5851 5850 5850 5849 5849 5848 5847 5847 5846 5845 5844 5842 5841 5840 5838 5836 5835 5833 5831 5829 5827 5824 5822 5820 5817 5815 5812 5809 5806 5804 5801 5798 5796 5793 5790 5787 5785 5782
5847 5847 5847 5846 5845 5844 5843 5842 5841 5840 5839 5837 5836 5834 5832 5830 5828 5826 5824 5822 5819 5817 5815 5812 5810 5807 5805 5802 5798 5795 5792 5789 5786 5783 5780 5777 5774 5770
5844 5843 5842 5842 5841 5840 5838 5837 5836 5835 5833 5831 5830 5828 5826 5824 5822 5819 5817 5815 5812 5809 5807 5804 5802 5798 5796 5793 5790 5786 5782 5779 5776 5772 5769 5765 5762 5759
5840 5839 5838 5837 5836 5835 5833 5832 5830 5829 5827 5825 5823 5821 5819 5817 5814 5812 5809 5807 5804 5801 5798 5795 5792 5789 5786 5783 5780 5776 5772 5768 5765 5761 5757 5753 5750 5746
5835 5834 5833 5832 5830 5829 5827 5826 5824 5822 5820 5818 5816 5814 5811 5809 5806 5803 5800 5798 5795 5791 5788 5785 5782 5778 5775 5772 5768 5765 5761 5757 5753 5749 5745 5741 5737 5733
5830 5828 5827 5826 5824 5823 5821 5819 5817 5815 5813 5811 5808 5806 5803 5800 5797 5795 5791 5788 5785 5781 5777 5774 5770 5767 5763 5760 5756 5752 5748 5744 5740 5736 5731 5727 5722 5718
5824 5822 5821 5819 5818 5816 5814 5812 5809 5807 5805 5802 5799 5797 5794 5791 5788 5785 5781 5778 5774 5771 5767 5762 5758 5754 5751 5747 5743 5739 5734 5730 5726 5721 5717 5713 5708 5703
5817 5815 5814 5812 5810 5808 5806 5803 5801 5798 5795 5793 5790 5787 5784 5781 5777 5774 5770 5766 5762 5758 5754 5750 5746 5742 5738 5733 5729 5724 5720 5715 5711 5706 5701 5697 5693 5687
5810 5808 5806 5804 5802 5800 5797 5795 5792 5789 5786 5783 5780 5776 5773 5769 5766 5762 5758 5754 5749 5745 5741 5736 5732 5728 5724 5720 5715 5708 5704 5699 5694 5689 5684 5679 5675 5670
5802 5800 5798 5796 5793 5791 5788 5785 5782 5779 5776 5772 5769 5765 5761 5758 5753 5749 5745 5740 5736 5731 5726 5721 5717 5712 5708 5703 5699 5694 5687 5681 5677 5672 5666 5661 5656 5651
5794 5792 5789 5787 5784 5781 5778 5775 5772 5768 5765 5761 5757 5753 5749 5745 5740 5736 5731 5726 5721 5716 5712 5707 5701 5696 5690 5686 5681 5676 5670 5663 5657 5652 5647 5642 5638 5633
5785 5782 5780 5777 5774 5771 5767 5764 5761 5757 5753 5749 5745 5740 5736 5731 5726 5721 5716 5711 5706 5701 5696 5691 5685 5679 5673 5668 5663 5658 5652 5646 5638 5632 5626 5621 5616 5612
5775 5773 5770 5767 5763 5760 5756 5753 5749 5745 5741 5736 5732 5727 5722 5717 5712 5707 5701 5696 5690 5685 5679 5674 5668 5662 5656 5650 5644 5638 5633 5627 5621 5615 5608 5601 5596 5591
Wind_Speed
1 1 1 1 1 1 1 1 2 2 2 3 4 5 4 4 4 4 4 4 4 4 5 6 6 7 7 8 8 9 9 9 10 11 11 12 13 13
1 2 2 2 2 2 2 2 2 3 3 4 4 5 5 5 5 5 5 5 5 6 6 6 7 7 8 9 10 11 11 11 11 12 13 14 15 15
2 3 3 3 3 3 3 3 3 4 4 4 5 5 5 5 5 6 7 7 7 8 8 9 9 10 10 10 11 12 13 13 13 14 14 15 16 17
3 3 4 4 4 4 4 5 5 5 5 5 6 6 6 7 7 8 8 9 9 10 11 11 11 12 12 13 13 13 14 14 15 15 15 16 17 18
5 5 4 4 5 5 5 5 6 6 6 6 7 8 8 8 9 10 10 11 11 12 12 13 13 14 14 15 15 16 16 17 17 18 19 19 19 20
6 6 6 6 6 6 6 7 7 7 8 8 9 9 10 10 11 11 12 13 13 14 14 15 15 16 16 16 17 17 18 19 20 20 21 22 22 23
8 8 7 8 8 8 9 9 9 9 10 10 11 12 12 13 13 14 15 15 16 16 17 17 18 18 19 19 19 20 21 21 22 22 23 24 25 26
9 9 9 9 9 9 10 11 11 12 12 13 13 14 15 16 16 17 17 18 18 19 19 20 20 21 21 22 22 23 23 24 24 25 26 26 27 28
11 11 11 10 10 11 12 12 13 14 15 15 16 17 18 19 19 20 20 20 21 21 21 22 23 23 24 24 25 25 26 26 27 27 28 29 30 31
13 12 12 13 13 14 14 15 15 16 17 18 19 19 20 21 21 22 22 23 23 24 24 24 26 26 27 27 28 29 29 30 30 31 31 32 33 33
14 14 14 14 15 16 17 17 18 19 20 21 22 22 23 23 24 25 26 26 26 27 27 28 28 29 30 31 31 32 33 33 34 34 35 35 36 36
14 15 16 16 17 18 19 19 19 20 21 22 24 24 25 26 26 27 28 28 29 29 30 30 31 31 31 32 34 35 35 36 36 37 38 38 38 39
17 17 18 18 19 19 20 21 21 22 23 25 25 26 26 27 27 28 29 30 31 31 32 32 33 34 34 35 35 37 38 38 39 39 40 41 41 42
18 18 19 19 21 22 22 23 24 24 25 26 27 28 28 29 29 29 30 32 32 33 34 35 36 36 37 37 38 38 40 41 41 42 42 43 44 44
20 20 21 22 23 24 25 25 26 27 28 29 30 30 30 31 31 32 34 34 35 36 37 37 38 38 39 40 40 41 42 42 44 44 45 46 46 47
22 23 24 25 26 26 27 28 28 29 30 31 32 33 34 34 35 36 36 37 38 39 40 40 41 42 42 42 43 44 45 45 46 47 48 49 49 50
24 25 25 26 27 28 29 30 31 32 32 33 34 36 36 37 38 38 39 40 40 41 42 43 44 45 45 46 46 47 48 49 49 50 50 51 52 53
26 26 27 28 30 31 31 32 33 34 35 35 36 37 37 38 40 41 42 43 43 44 45 46 47 47 48 49 50 51 51 52 53 54 54 54 54 55
26 27 29 30 31 32 33 33 34 35 36 37 37 38 40 41 42 43 44 45 45 46 47 48 49 50 50 51 52 54 54 55 56 56 57 57 56 56
29 30 31 32 32 33 34 35 36 37 38 39 40 41 42 43 44 45 46 47 48 49 50 50 51 52 52 53 53 54 56 57 58 58 58 58 58 59
31 33 33 34 34 35 36 37 38 38 40 41 42 43 44 46 47 47 48 50 51 51 52 53 54 55 56 56 56 57 58 59 60 60 60 60 60 59
33 34 35 36 37 37 38 39 40 41 42 43 44 45 47 48 48 49 51 52 53 53 54 55 56 57 58 58 59 59 60 61 61 62 62 62 60 59
35 36 37 37 38 39 40 41 42 43 44 45 46 47 48 49 50 51 53 53 54 55 55 56 57 59 59 60 61 61 61 61 62 62 61 61 59 58
Wind_Direction
56 36 27 18 14 27 26 357 357 6 0 351 343 346 349 342 332 332 320 324 324 324 321 315 314 314 312 302 297 298 300 298 295 293 291 287 284 284
292 295 297 300 307 315 320 323 329 332 335 334 336 339 335 332 326 329 331 319 319 327 326 328 324 318 311 305 299 297 298 298 297 296 296 293 289 288
297 289 283 282 287 295 302 311 318 319 324 327 331 332 331 330 326 324 328 328 324 322 319 317 316 315 313 309 305 300 299 297 295 295 296 295 294 291
308 301 288 282 282 287 294 299 301 306 311 315 318 322 326 325 323 322 322 321 319 318 316 315 314 313 311 310 307 305 305 302 299 300 299 297 295 294
298 297 291 290 287 287 293 299 301 304 307 313 316 318 320 318 315 315 315 314 312 313 312 312 311 310 309 307 306 304 303 303 302 302 302 299 296 295
292 291 285 286 286 284 287 292 297 299 301 303 306 308 308 310 310 310 309 306 305 307 308 308 308 307 306 305 305 304 302 301 300 299 299 298 298 296
289 287 283 284 283 283 286 288 291 293 293 295 299 301 301 303 305 305 305 305 304 303 302 303 304 305 305 305 305 303 302 300 299 298 298 298 298 297
284 284 283 284 283 284 286 288 290 291 292 293 295 297 299 300 301 301 302 302 303 301 301 301 302 302 302 303 303 303 301 300 299 298 298 298 298 297
281 281 281 283 283 288 289 290 291 291 292 294 295 297 298 299 299 299 300 300 300 300 300 301 300 300 299 300 301 301 301 300 298 298 298 297 297 297
279 281 282 281 283 287 289 290 291 291 291 293 295 296 296 296 297 298 298 299 299 299 299 299 299 298 298 299 299 300 300 300 300 298 298 298 297 297
278 279 282 284 286 287 288 289 290 289 290 292 295 294 295 296 297 297 297 297 297 297 297 298 297 298 298 298 299 299 299 299 299 299 298 298 298 297
281 282 283 286 288 289 289 290 290 290 291 293 295 295 295 296 297 297 297 297 297 297 297 297 297 297 297 298 298 298 297 297 298 298 297 297 297 297
282 284 286 288 290 291 291 292 292 293 295 296 297 297 297 297 297 297 297 298 298 298 297 297 297 297 297 297 297 297 297 296 296 297 296 296 296 296
282 284 286 288 290 291 292 293 293 294 295 296 297 296 297 297 298 299 299 299 298 298 298 298 297 297 298 298 297 297 297 297 297 297 297 296 296 296
283 285 287 288 289 290 291 292 292 293 294 295 296 296 296 296 296 297 298 298 298 299 299 299 299 298 298 297 297 296 296 296 297 297 297 296 296 296
285 287 288 289 289 290 291 292 292 293 293 294 294 295 295 295 296 296 297 298 298 298 298 298 299 299 298 298 298 298 297 297 297 297 297 297 296 296
286 287 289 290 291 291 292 293 293 293 293 293 293 294 295 295 295 296 296 297 297 297 297 297 298 298 298 298 298 298 298 298 298 297 297 296 296 295
287 288 290 291 292 292 292 292 293 293 294 295 296 295 295 296 296 296 296 296 296 296 296 297 297 297 297 297 297 297 297 297 297 297 297 296 295 295
288 289 290 291 291 292 292 293 293 294 295 295 296 296 296 296 297 297 297 297 297 297 297 296 296 296 296 296 296 296 296 296 296 296 296 295 295 295
288 290 291 292 292 293 293 293 293 294 294 295 296 296 296 297 297 297 298 298 298 297 296 296 296 297 297 297 296 296 296 296 296 296 295 295 295 294
289 291 291 292 293 293 294 294 294 295 296 296 297 297 297 298 298 297 297 297 297 297 297 296 297 297 297 297 297 297 297 297 296 296 296 295 294 294
290 291 291 292 293 294 295 295 296 296 297 297 298 298 298 298 298 298 298 298 298 298 297 297 297 297 297 298 298 298 297 297 297 297 297 297 295 294
291 293 293 293 294 295 295 296 296 297 298 298 298 299 299 299 299 299 299 299 299 299 298 298 298 298 298 298 299 298 298 298 297 297 298 297 296 295